FW5161 Weather Reports


Display with metric or nautical units.
time (UTC)temp
F
wind
direction
speed
MPH
gust
MPH
rain 1hr
in
rain 24hr
in
rain mn
in
humidity
%
barometer
mb
20220704212401 62 208 1.0 6.0 0.00 0.03 0.00 81 1014.3
20220704211900 62 249 1.0 7.0 0.00 0.03 0.00 81 1014.3
20220704211401 62 166 2.0 8.0 0.00 0.03 0.00 84 1014.3
20220704210901 61 108 4.0 15.0 0.00 0.03 0.00 84 1014.3
20220704210401 61 169 4.0 15.0 0.00 0.03 0.00 82 1014.4
20220704205901 62 218 3.0 5.0 0.00 0.04 0.00 82 1014.3
20220704205404 62 275 2.0 7.0 0.00 0.04 0.00 82 1014.2
20220704204900 62 87 2.0 7.0 0.00 0.04 0.00 83 1014.3
20220704204356 62 60 2.0 5.0 0.00 0.04 0.00 83 1014.3
20220704203848 62 225 2.0 10.0 0.00 0.04 0.00 83 1014.2
20220704203341 62 84 2.0 10.0 0.00 0.05 0.00 82 1014.1
20220704202839 62 7 1.0 6.0 0.00 0.05 0.00 84 1014.1
20220704202339 62 332 1.0 6.0 0.00 0.05 0.00 86 1014.0
20220704201839 61 110 2.0 9.0 0.00 0.05 0.00 86 1014.1
20220704201339 61 193 3.0 9.0 0.00 0.05 0.00 84 1014.0
20220704200839 61 170 2.0 9.0 0.00 0.06 0.00 85 1014.1
20220704200340 60 307 1.0 4.0 0.00 0.06 0.00 85 1014.2
20220704195839 61 272 2.0 4.0 0.00 0.06 0.00 85 1014.1
20220704195338 61 285 2.0 5.0 0.00 0.06 0.00 84 1014.1
20220704194835 61 112 2.0 5.0 0.00 0.07 0.00 86 1014.1
20220704194333 61 160 3.0 5.0 0.00 0.07 0.00 86 1014.0
20220704193833 61 272 3.0 7.0 0.00 0.07 0.00 86 1014.0
20220704193333 62 262 2.0 7.0 0.00 0.07 0.00 84 1013.9
20220704192833 62 285 2.0 7.0 0.00 0.07 0.00 86 1013.9
20220704192333 61 261 2.0 4.0 0.00 0.07 0.00 86 1013.8
20220704191833 60 31 2.0 10.0 0.00 0.08 0.00 85 1013.8
20220704191333 61 137 4.0 10.0 0.00 0.08 0.00 86 1013.8
20220704190831 60 120 5.0 10.0 0.00 0.08 0.00 85 1013.7
20220704190332 60 91 5.0 15.0 0.00 0.09 0.00 85 1013.7
20220704185832 60 141 4.0 15.0 0.00 0.09 0.00 84 1013.7
20220704185332 60 103 3.0 9.0 0.00 0.09 0.00 84 1013.7
20220704184832 61 133 1.0 8.0 0.00 0.10 0.00 82 1013.7
20220704184332 61 126 2.0 8.0 0.00 0.10 0.00 86 1013.7
20220704183832 60 155 3.0 12.0 0.00 0.11 0.00 87 1013.7
20220704183332 59 119 6.0 12.0 0.00 0.11 0.00 87 1013.7
20220704182831 58 197 6.0 14.0 0.00 0.12 0.00 87 1013.7
20220704182332 59 98 6.0 17.0 0.00 0.12 0.00 86 1013.7
20220704181833 58 152 5.0 17.0 0.00 0.12 0.00 86 1013.6
20220704181333 58 101 6.0 16.0 0.00 0.12 0.00 87 1013.6
20220704180829 58 278 7.0 16.0 0.00 0.12 0.00 88 1013.6
20220704180329 58 167 6.0 16.0 0.00 0.12 0.00 88 1013.5
20220704175830 58 105 6.0 12.0 0.00 0.12 0.00 88 1013.5
20220704175329 58 105 7.0 12.0 0.00 0.12 0.00 89 1013.6
20220704174828 58 165 8.0 14.0 0.00 0.12 0.00 88 1013.5
20220704174328 58 176 8.0 17.0 0.00 0.12 0.00 89 1013.5
20220704173828 57 135 8.0 17.0 0.00 0.12 0.00 89 1013.6
20220704173328 57 170 8.0 16.0 0.00 0.12 0.00 90 1013.6
20220704172829 57 116 8.0 16.0 0.00 0.12 0.00 91 1013.6
20220704172328 57 112 8.0 16.0 0.00 0.12 0.00 92 1013.6
20220704171829 56 113 7.0 16.0 0.00 0.13 0.00 92 1013.7
20220704171329 56 96 5.0 16.0 0.00 0.13 0.00 92 1013.7
20220704170829 56 148 5.0 11.0 0.00 0.13 0.00 93 1013.7
20220704170329 56 199 7.0 17.0 0.00 0.13 0.00 93 1013.7
20220704165829 56 151 8.0 17.0 0.00 0.13 0.00 93 1013.7
20220704165328 56 132 7.0 15.0 0.00 0.13 0.00 94 1013.6
20220704164829 56 98 8.0 15.0 0.00 0.13 0.00 93 1013.7
20220704164328 56 107 8.0 15.0 0.00 0.13 0.00 94 1013.5
20220704163828 55 143 8.0 14.0 0.00 0.13 0.00 94 1013.5
20220704163329 55 159 8.0 13.0 0.00 0.14 0.00 94 1013.6
20220704162828 55 228 6.0 13.0 0.00 0.14 0.00 94 1013.5
20220704162328 55 91 7.0 12.0 0.00 0.14 0.00 94 1013.6
20220704161828 55 135 8.0 15.0 0.00 0.15 0.00 94 1013.6
20220704161328 55 135 8.0 15.0 0.00 0.16 0.00 95 1013.6
20220704160828 55 141 7.0 14.0 0.00 0.17 0.00 95 1013.5
20220704160328 55 138 6.0 12.0 0.00 0.18 0.00 95 1013.5
20220704155828 55 141 5.0 11.0 0.00 0.19 0.00 95 1013.5
20220704155329 55 115 6.0 13.0 0.00 0.20 0.00 95 1013.5
20220704154828 55 141 6.0 13.0 0.00 0.20 0.00 95 1013.5
20220704154329 55 107 6.0 11.0 0.00 0.22 0.00 95 1013.5
20220704153829 55 147 5.0 10.0 0.00 0.24 0.00 95 1013.5
20220704153328 55 124 4.0 10.0 0.00 0.26 0.00 95 1013.5
20220704152829 55 132 3.0 10.0 0.00 0.29 0.00 96 1013.5
20220704152329 55 131 2.0 9.0 0.00 0.32 0.00 96 1013.4
20220704151832 55 73 3.0 10.0 0.00 0.35 0.00 96 1013.3
20220704151332 55 130 1.0 10.0 0.00 0.36 0.00 96 1013.4
20220704150829 55 64 0.0 2.0 0.00 0.38 0.00 96 1013.3
20220704150329 55 334 0.0 3.0 0.00 0.40 0.00 96 1013.3
20220704145829 56 346 0.0 5.0 0.00 0.42 0.00 96 1013.2
20220704145328 56 91 0.0 5.0 0.00 0.46 0.00 96 1013.2
20220704144829 55 95 2.0 8.0 0.00 0.50 0.00 96 1013.1
20220704144328 55 78 3.0 8.0 0.00 0.54 0.00 96 1013.1
20220704143829 55 85 2.0 5.0 0.00 0.54 0.00 96 1013.0
20220704143329 55 199 1.0 5.0 0.00 0.54 0.00 96 1013.1
20220704142829 55 118 0.0 5.0 0.00 0.54 0.00 96 1013.1
20220704142329 55 332 0.0 2.0 0.00 0.54 0.00 96 1013.0
20220704141829 55 308 0.0 1.0 0.00 0.54 0.00 96 1013.0
20220704141328 55 308 1.0 2.0 0.00 0.54 0.00 96 1013.0
20220704140829 55 308 1.0 2.0 0.00 0.54 0.00 96 1013.0
20220704140329 55 308 0.0 2.0 0.00 0.54 0.00 96 1013.0
20220704135831 55 308 0.0 3.0 0.00 0.54 0.00 96 1013.0
20220704135331 55 306 0.0 3.0 0.00 0.54 0.00 96 1013.0
20220704134829 55 336 0.0 2.0 0.00 0.54 0.00 96 1013.1
20220704134323 55 336 1.0 2.0 0.00 0.54 0.00 96 1013.1
20220704133817 55 336 1.0 2.0 0.00 0.54 0.00 96 1013.0
20220704133310 55 338 1.0 2.0 0.00 0.54 0.00 95 1013.0
20220704132804 55 338 1.0 3.0 0.00 0.54 0.00 95 1012.9
20220704132302 55 338 1.0 3.0 0.00 0.54 0.00 95 1013.1
20220704131802 55 85 0.0 2.0 0.00 0.54 0.00 95 1013.0
20220704131301 55 80 1.0 2.0 0.00 0.54 0.00 95 1013.0
20220704130802 55 111 1.0 4.0 0.00 0.54 0.00 95 1013.0
20220704130302 55 105 1.0 4.0 0.00 0.54 0.00 95 1012.9
20220704125802 55 111 2.0 5.0 0.00 0.54 0.00 94 1012.9
20220704125302 55 23 2.0 6.0 0.00 0.54 0.00 95 1012.9
20220704124802 55 81 1.0 6.0 0.00 0.54 0.00 94 1012.9
20220704124302 55 30 2.0 8.0 0.00 0.54 0.00 94 1013.0
20220704123801 55 118 3.0 10.0 0.00 0.54 0.00 94 1013.0
20220704123302 55 105 3.0 10.0 0.00 0.54 0.00 94 1012.9
20220704122801 55 141 2.0 6.0 0.00 0.54 0.00 94 1012.9
20220704122302 55 91 1.0 5.0 0.00 0.54 0.00 94 1012.9
20220704121804 55 101 1.0 5.0 0.00 0.54 0.00 94 1012.8
20220704121303 55 78 2.0 7.0 0.00 0.54 0.00 94 1012.9
20220704120803 55 195 2.0 7.0 0.00 0.54 0.00 94 1012.6
20220704120304 55 97 3.0 10.0 0.00 0.54 0.00 94 1012.6
20220704115801 55 168 3.0 10.0 0.00 0.54 0.00 94 1012.6
20220704115253 55 123 3.0 8.0 0.00 0.54 0.00 94 1012.6
20220704114747 55 167 3.0 9.0 0.00 0.54 0.00 94 1012.8
20220704114242 55 145 4.0 9.0 0.00 0.54 0.00 94 1012.8
20220704113738 55 197 4.0 9.0 0.00 0.54 0.00 94 1012.9
20220704113238 55 186 4.0 9.0 0.00 0.54 0.00 95 1012.8
20220704112736 55 124 4.0 9.0 0.00 0.54 0.00 95 1012.6
20220704112235 55 134 4.0 10.0 0.00 0.54 0.00 95 1012.6
20220704111735 55 130 4.0 10.0 0.00 0.54 0.00 95 1012.6
20220704111236 54 132 2.0 7.0 0.00 0.54 0.00 96 1012.5
20220704110736 54 174 1.0 6.0 0.00 0.54 0.00 96 1012.5
20220704110236 54 335 0.0 0.0 0.00 0.54 0.00 96 1012.6
20220704105734 54 335 0.0 0.0 0.00 0.54 0.00 96 1012.5
20220704105233 54 351 0.0 0.0 0.00 0.54 0.00 96 1012.5
20220704104729 54 2 0.0 0.0 0.00 0.54 0.00 96 1012.6
20220704104230 54 2 0.0 0.0 0.00 0.54 0.00 96 1012.6
20220704103730 54 8 0.0 6.0 0.00 0.54 0.00 96 1012.5
20220704103230 54 4 0.0 6.0 0.00 0.54 0.00 96 1012.5
20220704102730 54 335 0.0 3.0 0.00 0.54 0.00 95 1012.6
20220704102229 54 345 1.0 3.0 0.00 0.54 0.00 95 1012.5
20220704101730 54 330 1.0 3.0 0.00 0.54 0.00 95 1012.5
20220704101230 54 331 1.0 3.0 0.00 0.54 0.00 95 1012.5
20220704100730 54 332 0.0 3.0 0.00 0.54 0.00 95 1012.5
20220704100229 54 174 0.0 2.0 0.00 0.54 0.00 95 1012.5
20220704095729 54 174 1.0 3.0 0.00 0.54 0.00 95 1012.4
20220704095228 54 149 1.0 3.0 0.00 0.54 0.00 95 1012.4
20220704094732 54 314 1.0 3.0 0.00 0.54 0.00 95 1012.4
20220704094229 54 309 0.0 2.0 0.00 0.54 0.00 95 1012.5
20220704093728 54 295 0.0 2.0 0.00 0.54 0.00 95 1012.4
20220704093229 54 295 1.0 2.0 0.00 0.54 0.00 95 1012.4
20220704092729 54 285 1.0 3.0 0.00 0.54 0.00 95 1012.5
20220704092228 54 209 1.0 3.0 0.00 0.54 0.00 95 1012.5
20220704091729 54 316 1.0 4.0 0.00 0.54 0.00 95 1012.5
20220704091228 54 329 2.0 6.0 0.00 0.54 0.00 95 1012.5
20220704090729 54 273 2.0 6.0 0.00 0.54 0.00 95 1012.5
20220704090228 54 259 1.0 3.0 0.00 0.54 0.00 95 1012.5
20220704085729 54 170 1.0 5.0 0.00 0.54 0.00 95 1012.5
20220704085229 54 173 1.0 5.0 0.00 0.54 0.00 95 1012.6
20220704084729 54 188 1.0 4.0 0.00 0.54 0.00 95 1012.5
20220704084230 54 156 1.0 4.0 0.00 0.54 0.00 95 1012.6
20220704083729 55 180 1.0 4.0 0.00 0.54 0.00 94 1012.6
20220704083230 55 192 0.0 3.0 0.00 0.54 0.00 94 1012.6
20220704082729 55 216 1.0 6.0 0.00 0.54 0.00 94 1012.6
20220704082230 55 216 1.0 6.0 0.00 0.54 0.00 94 1012.6
20220704081729 55 189 2.0 8.0 0.00 0.54 0.00 94 1012.5
20220704081228 55 155 3.0 8.0 0.00 0.54 0.00 94 1012.5
20220704080729 55 134 3.0 10.0 0.00 0.54 0.00 94 1012.6
20220704080229 55 226 4.0 10.0 0.00 0.54 0.00 94 1012.6
20220704075729 55 215 5.0 13.0 0.00 0.54 0.00 94 1012.6
20220704075229 55 166 6.0 13.0 0.00 0.54 0.00 93 1012.5
20220704074729 55 193 6.0 13.0 0.01 0.54 0.00 94 1012.6
20220704074228 55 203 7.0 14.0 0.01 0.54 0.00 94 1012.6
20220704073729 55 142 7.0 14.0 0.01 0.54 0.00 94 1012.8
20220704073228 55 149 7.0 15.0 0.01 0.54 0.00 94 1012.8
20220704072733 55 131 8.0 15.0 0.01 0.54 0.00 94 1012.8
20220704072231 55 140 7.0 15.0 0.01 0.54 0.00 94 1012.8
20220704071732 55 178 7.0 13.0 0.01 0.54 0.00 94 1012.8
20220704071232 55 159 8.0 14.0 0.01 0.54 0.00 94 1012.9
20220704070735 55 142 9.0 17.0 0.01 0.54 0.00 94 1012.9
20220704070231 55 135 9.0 17.0 0.01 0.54 0.00 94 1012.8
20220704065729 55 156 8.0 16.0 0.01 0.54 0.54 94 1012.6
20220704065229 55 143 8.0 16.0 0.01 0.54 0.54 94 1012.8
20220704064729 55 124 8.0 19.0 0.00 0.53 0.53 93 1012.9
20220704064229 55 116 9.0 19.0 0.00 0.53 0.53 93 1012.8
20220704063729 55 167 9.0 21.0 0.00 0.53 0.53 93 1012.9
20220704063229 55 139 8.0 21.0 0.00 0.53 0.53 93 1012.8
20220704062729 55 98 8.0 17.0 0.00 0.53 0.53 93 1012.9
20220704062229 55 141 9.0 17.0 0.00 0.53 0.53 93 1012.8
20220704061729 55 176 10.0 19.0 0.00 0.53 0.53 93 1012.9
20220704061229 55 167 10.0 28.0 0.00 0.53 0.53 93 1012.9
20220704060729 55 103 10.0 28.0 0.00 0.53 0.53 93 1012.8
20220704060229 55 130 10.0 20.0 0.00 0.53 0.53 93 1012.8
20220704055728 55 170 11.0 19.0 0.00 0.53 0.53 93 1012.8
20220704055229 55 110 11.0 22.0 0.00 0.53 0.53 93 1012.9
20220704054729 55 138 12.0 23.0 0.00 0.53 0.53 93 1012.9
20220704054230 55 115 13.0 23.0 0.00 0.53 0.53 93 1012.9
20220704053729 55 145 13.0 22.0 0.00 0.53 0.53 93 1012.8
20220704053230 55 133 13.0 22.0 0.00 0.53 0.53 93 1012.8
20220704052729 55 171 13.0 22.0 0.00 0.53 0.53 93 1012.8
20220704052232 55 156 13.0 22.0 0.00 0.53 0.53 93 1012.9
20220704051729 55 137 12.0 22.0 0.00 0.53 0.53 93 1012.8
20220704051230 55 128 11.0 18.0 0.00 0.53 0.53 93 1012.8
20220704050729 55 159 11.0 21.0 0.00 0.53 0.53 93 1012.6
20220704050229 55 149 11.0 21.0 0.00 0.53 0.53 93 1012.6
20220704045728 55 120 10.0 18.0 0.00 0.53 0.53 93 1012.6
20220704045229 55 177 10.0 19.0 0.00 0.53 0.53 93 1012.6
20220704044728 55 110 11.0 19.0 0.00 0.53 0.53 93 1012.6
20220704044229 55 177 12.0 18.0 0.00 0.53 0.53 93 1012.9
20220704043728 55 147 12.0 20.0 0.00 0.53 0.53 93 1012.9
20220704043230 55 149 12.0 20.0 0.00 0.53 0.53 93 1012.9
20220704042729 55 202 12.0 19.0 0.00 0.53 0.53 93 1012.6
20220704042229 55 110 11.0 18.0 0.00 0.53 0.53 93 1012.6
20220704041729 55 119 10.0 17.0 0.00 0.53 0.53 94 1012.6
20220704041226 54 83 11.0 20.0 0.00 0.53 0.53 94 1012.6
20220704040719 54 121 11.0 20.0 0.00 0.53 0.53 94 1012.8
20220704040214 54 191 12.0 21.0 0.00 0.53 0.53 94 1012.9
20220704035708 54 154 13.0 21.0 0.00 0.53 0.53 94 1012.8
20220704035202 54 118 12.0 21.0 0.00 0.53 0.53 94 1012.6
20220704034702 54 178 11.0 20.0 0.00 0.53 0.53 94 1012.6
20220704034201 54 137 11.0 20.0 0.00 0.53 0.53 94 1012.6
20220704033703 54 129 11.0 22.0 0.00 0.53 0.53 94 1012.6
20220704033203 54 171 11.0 22.0 0.00 0.53 0.53 94 1012.6
20220704032703 54 184 12.0 22.0 0.00 0.53 0.53 94 1012.5
20220704032202 54 130 12.0 22.0 0.00 0.53 0.53 94 1012.6
20220704031702 54 137 12.0 20.0 0.00 0.53 0.53 94 1012.5
20220704031201 54 157 13.0 20.0 0.00 0.53 0.53 94 1012.5
20220704030701 54 142 13.0 18.0 0.00 0.53 0.53 94 1012.5
20220704030201 55 149 12.0 19.0 0.00 0.53 0.53 94 1012.4
20220704025702 55 169 11.0 19.0 0.00 0.53 0.53 94 1012.4
20220704025201 55 128 11.0 18.0 0.00 0.53 0.53 94 1012.3
20220704024701 54 149 11.0 19.0 0.00 0.53 0.53 94 1012.3
20220704024201 55 172 11.0 19.0 0.00 0.53 0.53 95 1012.3
20220704023702 54 157 11.0 19.0 0.00 0.53 0.53 95 1012.2
20220704023201 54 135 11.0 18.0 0.00 0.53 0.53 95 1012.3
20220704022701 54 222 11.0 18.0 0.00 0.53 0.53 95 1012.2
20220704022155 54 155 10.0 18.0 0.00 0.53 0.53 94 1012.3
20220704021650 54 118 10.0 18.0 0.00 0.53 0.53 94 1012.3
20220704021143 55 132 9.0 17.0 0.00 0.53 0.53 94 1012.2
20220704020638 55 128 8.0 16.0 0.00 0.53 0.53 95 1012.2
20220704020138 54 139 8.0 18.0 0.00 0.53 0.53 94 1012.1
20220704015638 55 165 7.0 18.0 0.00 0.53 0.53 94 1012.1
20220704015138 55 145 7.0 15.0 0.00 0.53 0.53 94 1012.1
20220704014637 55 118 8.0 16.0 0.00 0.53 0.53 94 1012.1
20220704014138 55 106 8.0 16.0 0.00 0.53 0.53 94 1012.2
20220704013641 55 159 8.0 15.0 0.00 0.53 0.53 95 1012.1
20220704013138 55 113 9.0 16.0 0.00 0.53 0.53 94 1012.1
20220704012637 55 141 9.0 16.0 0.00 0.53 0.53 95 1012.0
20220704012137 55 182 8.0 15.0 0.00 0.53 0.53 95 1012.1
20220704011638 55 151 9.0 17.0 0.00 0.53 0.53 95 1012.1
20220704011138 55 125 9.0 17.0 0.00 0.53 0.53 95 1012.1
20220704010638 55 164 9.0 18.0 0.00 0.53 0.53 95 1012.0
20220704010137 54 151 9.0 18.0 0.00 0.53 0.53 95 1012.0
20220704005638 54 114 10.0 18.0 0.00 0.53 0.53 95 1012.0
20220704005138 54 155 11.0 19.0 0.00 0.53 0.53 95 1012.0
20220704004638 54 152 12.0 19.0 0.00 0.53 0.53 95 1012.0
20220704004138 55 140 13.0 20.0 0.00 0.53 0.53 95 1011.9
20220704003638 55 147 12.0 21.0 0.00 0.53 0.53 94 1012.0
20220704003138 55 118 10.0 21.0 0.01 0.53 0.53 94 1012.0
20220704002638 55 170 10.0 19.0 0.01 0.53 0.53 94 1012.0
20220704002137 55 134 9.0 19.0 0.01 0.53 0.53 94 1011.9
20220704001638 55 162 8.0 19.0 0.01 0.53 0.53 94 1011.9
20220704001138 55 110 9.0 19.0 0.01 0.53 0.53 94 1012.0
20220704000637 55 124 9.0 18.0 0.01 0.53 0.53 94 1011.9
20220704000133 55 149 9.0 21.0 0.01 0.53 0.53 94 1011.9
20220703235633 55 139 8.0 21.0 0.01 0.53 0.53 95 1011.9
20220703235133 55 68 6.0 14.0 0.01 0.53 0.53 95 1011.9
20220703234634 55 182 5.0 13.0 0.01 0.53 0.53 95 1011.9
20220703234134 55 203 5.0 13.0 0.01 0.53 0.53 94 1011.9
20220703233634 55 150 4.0 10.0 0.01 0.53 0.53 94 1011.9
20220703233134 55 87 3.0 9.0 0.00 0.52 0.52 94 1011.9
20220703232633 55 203 3.0 9.0 0.00 0.52 0.52 94 1011.9
20220703232133 55 112 3.0 12.0 0.00 0.52 0.52 94 1012.0
20220703231629 55 207 4.0 12.0 0.00 0.52 0.52 94 1011.9
20220703231129 55 151 5.0 12.0 0.00 0.52 0.52 94 1012.0
20220703230628 55 151 6.0 14.0 0.00 0.52 0.52 94 1012.0
20220703230129 55 119 7.0 18.0 0.00 0.52 0.52 94 1011.9
20220703225630 55 153 7.0 18.0 0.00 0.52 0.52 94 1012.2
20220703225129 55 116 9.0 18.0 0.00 0.52 0.52 94 1012.0
20220703224629 55 118 10.0 18.0 0.00 0.52 0.52 93 1012.0
20220703224129 55 172 10.0 18.0 0.01 0.52 0.52 93 1012.0
20220703223629 55 137 9.0 18.0 0.01 0.52 0.52 93 1011.9
20220703223129 56 153 9.0 18.0 0.01 0.52 0.52 93 1012.0
20220703222629 56 145 9.0 19.0 0.01 0.52 0.52 93 1012.0
20220703222129 56 128 9.0 19.0 0.01 0.52 0.52 93 1012.0
20220703221630 56 147 9.0 19.0 0.01 0.52 0.52 93 1012.0
20220703221128 56 81 10.0 19.0 0.01 0.52 0.52 93 1012.0
20220703220629 56 135 9.0 18.0 0.01 0.52 0.52 93 1012.1
20220703220128 56 131 9.0 18.0 0.01 0.52 0.52 93 1012.1
20220703215623 56 117 9.0 18.0 0.02 0.52 0.52 93 1012.0
20220703215116 56 108 7.0 18.0 0.02 0.52 0.52 94 1012.1
20220703214611 56 86 5.0 16.0 0.02 0.52 0.52 94 1012.0
20220703214109 56 164 4.0 8.0 0.01 0.51 0.51 94 1012.0
20220703213609 56 121 4.0 9.0 0.02 0.51 0.51 93 1012.1
20220703213107 56 136 3.0 9.0 0.02 0.51 0.51 94 1012.2